K1RTA-1 Weather Reports


Display with metric or nautical units.
time (UTC)temp
F
wind
direction
speed
MPH
gust
MPH
rain 1hr
in
rain 24hr
in
rain mn
in
humidity
%
barometer
mb
20260507110620 50 36 4.0 14.0 0.00 0.10 0.00 92 1008.6
20260507105120 50 37 3.0 11.0 0.00 0.10 0.00 92 1008.4
20260507103622 51 38 3.0 12.0 0.00 0.10 0.00 92 1008.1
20260507102121 51 36 4.0 9.0 0.00 0.10 0.00 92 1008.2
20260507100621 52 34 4.0 13.0 0.00 0.10 0.00 92 1007.4
20260507095120 53 34 4.0 9.0 0.00 0.10 0.00 92 1007.7
20260507093621 54 36 3.0 11.0 0.00 0.10 0.00 93 1007.3
20260507092120 54 41 4.0 10.0 0.00 0.10 0.00 93 1007.6
20260507090620 55 40 5.0 10.0 0.00 0.10 0.00 93 1008.2
20260507085121 56 40 3.0 12.0 0.00 0.10 0.00 93 1008.0
20260507083621 56 37 1.0 3.0 0.00 0.09 0.00 93 1006.9
20260507082120 56 34 2.0 6.0 0.00 0.09 0.00 93 1006.6
20260507080622 56 35 1.0 4.0 0.00 0.09 0.00 93 1006.6
20260507075122 56 34 1.0 6.0 0.00 0.09 0.09 93 1006.9
20260507073620 56 34 3.0 9.0 0.00 0.09 0.09 93 1007.1
20260507072121 56 36 1.0 6.0 0.00 0.09 0.09 93 1007.1
20260507070621 56 37 2.0 7.0 0.00 0.09 0.09 93 1007.0
20260507065121 56 37 2.0 9.0 0.00 0.09 0.09 93 1007.0
20260507063620 56 38 3.0 9.0 0.00 0.09 0.09 93 1007.5
20260507062121 56 38 4.0 10.0 0.00 0.09 0.09 93 1007.3
20260507060621 56 40 4.0 12.0 0.00 0.09 0.09 93 1007.4
20260507055120 57 218 5.0 13.0 0.00 0.09 0.09 93 1007.4
20260507053621 57 231 5.0 14.0 0.00 0.09 0.09 93 1007.7
20260507052122 57 43 6.0 13.0 0.00 0.09 0.09 93 1008.1
20260507050621 57 42 7.0 15.0 0.00 0.09 0.09 93 1007.9
20260507045120 57 35 5.0 14.0 0.00 0.09 0.09 93 1007.9
20260507043622 57 35 5.0 11.0 0.00 0.09 0.09 92 1008.0
20260507042121 57 243 5.0 13.0 0.00 0.09 0.09 92 1008.3
20260507040622 58 238 7.0 15.0 0.00 0.09 0.09 92 1008.4
20260507035120 58 231 8.0 17.0 0.00 0.09 0.09 92 1008.5
20260507033621 58 225 7.0 17.0 0.00 0.09 0.09 92 1008.3
20260507032122 58 213 7.0 16.0 0.00 0.09 0.09 92 1007.8
20260507030621 58 218 8.0 18.0 0.00 0.09 0.09 92 1007.9
20260507025121 58 225 8.0 21.0 0.00 0.09 0.09 92 1008.4
20260507023621 58 223 8.0 16.0 0.00 0.09 0.09 92 1008.6
20260507022121 58 221 8.0 18.0 0.00 0.09 0.09 92 1008.9
20260507020622 58 226 9.0 21.0 0.00 0.09 0.09 92 1009.1
20260507015122 58 219 8.0 20.0 0.02 0.09 0.09 93 1009.4
20260507013621 58 219 8.0 18.0 0.02 0.08 0.08 92 1009.5
20260507012122 58 213 9.0 22.0 0.02 0.08 0.08 92 1009.5
20260507010620 58 211 11.0 22.0 0.03 0.08 0.08 92 1009.4
20260507005121 58 212 9.0 19.0 0.02 0.06 0.06 92 1009.5
20260507003621 58 209 10.0 27.0 0.02 0.06 0.06 92 1009.4
20260507002122 58 209 9.0 21.0 0.04 0.05 0.05 92 1009.4
20260507000621 58 208 9.0 22.0 0.05 0.05 0.05 91 1009.6
20260506235121 58 262 10.0 21.0 0.04 0.04 0.04 91 1009.7
20260506233621 59 212 9.0 21.0 0.03 0.03 0.03 90 1009.8
20260506232122 59 212 10.0 20.0 0.00 0.00 0.00 89 1010.1
20260506230621 61 215 10.0 27.0 0.00 0.00 0.00 85 1010.1
20260506225121 61 214 11.0 24.0 0.00 0.00 0.00 83 1010.2
20260506223622 61 207 11.0 25.0 0.00 0.00 0.00 82 1010.3
20260506222121 61 212 9.0 21.0 0.00 0.00 0.00 82 1010.1
20260506220621 61 210 9.0 23.0 0.00 0.00 0.00 81 1010.2
20260506215122 62 210 10.0 22.0 0.00 0.00 0.00 81 1010.5
20260506213621 62 208 10.0 24.0 0.00 0.00 0.00 80 1010.6
20260506212121 62 209 9.0 28.0 0.00 0.00 0.00 80 1010.6
20260506210621 63 208 10.0 23.0 0.00 0.00 0.00 80 1010.6
20260506205123 62 211 11.0 24.0 0.00 0.00 0.00 79 1010.7
20260506203622 63 211 10.0 25.0 0.00 0.00 0.00 79 1011.1
20260506202121 63 214 8.0 18.0 0.00 0.00 0.00 79 1011.2
20260506200622 63 218 8.0 17.0 0.00 0.00 0.00 79 1011.4
20260506195121 63 216 9.0 21.0 0.00 0.00 0.00 79 1011.4
20260506193623 63 214 9.0 21.0 0.00 0.00 0.00 79 1011.4
20260506192123 63 213 9.0 18.0 0.00 0.00 0.00 79 1011.6
20260506190622 63 218 10.0 22.0 0.00 0.00 0.00 78 1011.9
20260506185121 63 218 12.0 28.0 0.00 0.00 0.00 77 1012.2
20260506183622 64 216 11.0 25.0 0.00 0.00 0.00 76 1012.2
20260506182122 66 221 12.0 28.0 0.00 0.00 0.00 74 1012.6
20260506180622 66 222 10.0 25.0 0.00 0.00 0.00 75 1012.7
20260506175121 65 219 10.0 22.0 0.00 0.00 0.00 76 1012.7
20260506173621 64 219 12.0 30.0 0.00 0.00 0.00 77 1012.7
20260506172122 64 211 11.0 26.0 0.00 0.00 0.00 77 1013.0
20260506170623 65 217 11.0 24.0 0.00 0.00 0.00 76 1013.3
20260506165122 65 218 11.0 29.0 0.00 0.00 0.00 75 1013.5
20260506163623 66 214 11.0 27.0 0.00 0.00 0.00 73 1013.5
20260506162122 66 210 14.0 29.0 0.00 0.00 0.00 75 1013.7
20260506160622 66 215 13.0 32.0 0.00 0.00 0.00 74 1013.7
20260506155121 66 219 13.0 28.0 0.00 0.00 0.00 75 1014.0
20260506153622 64 219 12.0 33.0 0.00 0.00 0.00 77 1014.3
20260506152123 65 220 11.0 28.0 0.00 0.00 0.00 76 1014.1
20260506150623 65 214 12.0 27.0 0.00 0.00 0.00 75 1013.9
20260506145121 65 216 13.0 27.0 0.00 0.00 0.00 74 1013.8
20260506143622 65 215 11.0 32.0 0.00 0.00 0.00 75 1013.9
20260506142122 65 216 14.0 28.0 0.00 0.00 0.00 76 1014.4
20260506140622 65 221 12.0 29.0 0.00 0.00 0.00 76 1014.4
20260506135123 64 214 10.0 25.0 0.00 0.00 0.00 77 1014.1
20260506133622 64 218 11.0 29.0 0.00 0.00 0.00 77 1014.1
20260506132123 64 217 11.0 25.0 0.00 0.00 0.00 78 1014.0
20260506130622 63 216 10.0 24.0 0.00 0.00 0.00 79 1014.2
20260506125122 62 218 12.0 24.0 0.00 0.00 0.00 81 1014.2
20260506123623 62 216 11.0 24.0 0.00 0.00 0.00 81 1014.3
20260506122122 61 217 11.0 26.0 0.00 0.00 0.00 83 1014.4
20260506120623 60 217 10.0 22.0 0.00 0.00 0.00 84 1014.6
20260506115122 60 217 10.0 22.0 0.00 0.00 0.00 83 1014.7
20260506113622 60 214 8.0 22.0 0.00 0.00 0.00 84 1014.5
20260506112123 60 215 9.0 21.0 0.00 0.00 0.00 85 1014.7